www.pogodaiklimat.ru
ПОГОДА в Моррисе
Время
и дата
22:44 23.10
23:23 23.10
00:04 24.10
00:44 24.10
01:22 24.10
02:04 24.10
02:44 24.10
03:24 24.10
04:04 24.10
04:44 24.10
05:24 24.10
06:03 24.10
06:44 24.10
07:24 24.10
08:04 24.10
08:43 24.10
09:24 24.10
10:02 24.10
10:41 24.10
11:22 24.10
12:02 24.10
12:43 24.10
13:23 24.10
14:04 24.10
14:43 24.10
15:23 24.10
16:04 24.10
16:44 24.10
17:23 24.10
18:01 24.10
18:44 24.10
19:46 24.10
20:24 24.10
21:05 24.10
21:44 24.10
22:24 24.10
23:04 24.10
23:44 24.10
00:23 25.10
01:04 25.10
01:43 25.10
02:43 25.10
03:24 25.10
04:04 25.10
04:42 25.10
05:25 25.10
06:01 25.10
07:04 25.10
Ветер
(напр.,м/с)
Видим. Явления Облачность Т
(С)
Тd
(С)
f
(%)
Тe
(С)
Тes
(С)
Комфортность P
(гПа)
Po
(гПа)
Тmin
(С)
Tmax
(С)
R
(мм)
R24
(мм)
S
(см)
З 2 16 км ясно -10.0 -12.0 85 -17 -16 987.0
З 1 16 км ясно -9.0 -12.0 79 -15 -15 986.7
З 1 16 км ясно -9.0 -12.0 79 -15 -15 987.0
З 1 16 км ясно -9.0 -11.0 85 -15 -15 987.0
СЗ 1 16 км ясно -9.0 -11.0 85 -13 -13 986.7
З 1 16 км ясно -9.0 -11.0 85 -13 -13 986.4
З 1 16 км ясно -9.0 -11.0 85 -13 -13 986.0
СЗ 1 16 км ясно -8.0 -11.0 79 -12 -12 986.0
С 1 16 км ясно -8.0 -11.0 79 -12 -12 985.7
штиль 0 16 км ясно -8.0 -11.0 79 -9 -9 986.0
штиль 0 16 км 8/0 2700 м
[средняя]
-8.0 -11.0 79 -9 -9 985.4
штиль 0 16 км 10/0 2400 м
[средняя]
-8.0 -11.0 79 -9 -9 986.0
штиль 0 16 км 10/0 2100 м
[средняя]
-8.0 -11.0 79 -9 -9 986.0
штиль 0 16 км 10/10 1500 м -8.0 -10.0 85 -9 -9 986.4
штиль 0 16 км 10/10 1500 м -7.0 -10.0 79 -8 -8 986.7
З 1 16 км 5/5 1500 м -6.0 -10.0 73 -10 -10 987.0
штиль 0 16 км ясно -5.0 -10.0 68 -6 -4 987.0
штиль 0 16 км ясно -6.0 -10.0 73 -7 -2 987.0
штиль 0 16 км ясно -6.0 -9.0 79 -7 -2 987.0
штиль 0 16 км ясно -4.0 -10.0 63 -5 +2 986.7
штиль 0 16 км ясно -4.0 -9.0 68 -5 +3 986.4
С 1 16 км ясно -4.0 -9.0 68 -9 -4 985.7
С 1 16 км ясно -4.0 -9.0 68 -8 -2 985.4
С 1 16 км ясно -3.0 -9.0 63 -8 -4 985.4
С 1 16 км ясно -4.0 -9.0 68 -8 -3 984.7
С 1 16 км ясно -4.0 -9.0 68 -9 -7 984.7
С 1 16 км ясно -4.0 -9.0 68 -8 -7 985.1
С 1 16 км 8/0 3300 м
[Ac]
-4.0 -9.0 68 -9 -9 985.1
С 1 16 км ясно -5.0 -9.0 73 -10 -10 985.1
СЗ 1 16 км 8/0 2700 м
[Ac]
-5.0 -9.0 73 -10 -10 985.1
СЗ 1 16 км 10/0 2100 м
[Ac]
-6.0 -9.0 79 -10 -10 985.4
СЗ 1 16 км 8/0 2850 м
[Ac]
-6.0 -9.0 79 -12 -12 986.0
СЗ 2 16 км 10/0 2850 м
[Ac]
-6.0 -9.0 79 -12 -12 986.4
СЗ 1 16 км 10/10 1500 м -6.0 -9.0 79 -12 -12 986.7
СЗ 1 16 км 10/0 2100 м
[Ac]
-6.0 -9.0 79 -12 -12 986.7
С 1 16 км 10/10 1800 м -6.0 -9.0 79 -12 -12 986.7
С 1 16 км 10/0 2100 м
[Ac]
-6.0 -9.0 79 -12 -12 987.0
СЗ 1 16 км 10/8 1800 м
[Ac]
-6.0 -8.0 86 -12 -12 987.3
С 1 16 км 10/10 930 м -5.0 -8.0 79 -10 -10 987.0
С 2 4 км слабый снег 10/10 720 м -5.0 -7.0 86 -11 -11 987.3
С 1 6 км слабый снег 10/10 870 м -5.0 -6.0 93 -11 -11 987.3
С 1 6 км слабый снег 10/10 780 м -5.0 -6.0 93 -11 -11 987.7
С 1 4 км слабый снег 10/10 480 м -5.0 -6.0 93 -11 -11 987.0
С 1 6 км слабый снег 8/8 600 м -6.0 -6.0 100 -12 -12 987.3
С 2 6 км слабый снег 10/10 1500 м -6.0 -6.0 100 -13 -13 987.0
СЗ 1 6 км слабый снег 10/10 1020 м -6.0 -6.0 100 -12 -12 987.3
С 1 6 км слабый снег 10/5 1800 м
[Ac]
-6.0 -6.0 100 -12 -12 987.3
СЗ 1 6 км слабый снег 10/10 780 м -6.0 -7.0 93 -12 -12 987.7
Местоположение метеостанции Morris Municipal Airport: широта 45.5667 долгота -95.9667 высота над уровнем моря 347 м.
В архиве по умолчанию представлена погода в Моррисе за последние 1-2 суток. Обновление информации о фактической погоде в базе происходит ежечасно! Архивные данные за месяц целиком и за предыдущие месяцы Вы можете получить, выбрав интересующий диапазон дат из раскрывающегося списка и нажав кнопку "Ввод!".
Внимание! Архив погоды МЕТАР в базе сайта по станциям, не включенным в климатический монитор, хранится не более 60 дней. Нет смысла пытаться выбрать более раннюю дату.
*Определитесь, кто Вы:
Внимание! Время в таблицах - местное (без учета летнего времени). Для получения всемирного времени необходимо вычесть поправку, которая равна -6 ч.
Смотрите также архив погоды в соседних городах и на ближайших метеорологических станциях:
Партнеры нашего сайта:      
Пояснения к столбцам:
  • Ветер - указаны скорость ветра в м/с - средняя за 10 мин, порывы в срок и между сроками (в фигурных скобках) и направление, откуда дует ветер: С - северный,
  • СВ - северо-восточный, В - восточный, ЮВ - юго-восточный, Ю - южный, ЮЗ - юго-западный, З - западный, СЗ - северо-западный.
  • Видимость - горизонтальная дальность видимости в метрах или километрах. При видимости от 1 до 10 км при отсутствии осадков обычно наблюдается дымка, при ухудшении видимости до 1 км и менее - туман. В сухую погоду видимость может ухудшаться дымом, пылью или мглою.
  • Явления - указаны атмосферные явления, наблюдавшиеся в срок или в последний час перед сроком; фигурными скобками обозначены явления, наблюдавшиеся между сроками (за 1-3 часа до срока); квадратными скобками обозначены град или гололедные отложения с указанием их диаметра в мм.
  • Облачность - указаны через наклонную черту общая и нижняя облачность в баллах и высота нижней границы облаков в метрах; квадратными скобками обозначены формы облаков: Ci - перистые, Cs - перисто-слоистые, Cc - перисто-кучевые, Ac - высококучевые, As - высокослоистые, Sc - слоисто-кучевые, Ns - слоисто-дождевые, Cu - кучевые, Cb - кучево-дождевые. Подробнее классификацию облаков см. в Атласе облаков (PDF).
  • T - Температура воздуха - температура, измеренная на высоте 2 м над землей.
  • Td - Температура точки росы - температура, при понижении до которой содержащийся в воздухе водяной пар достигнет насыщения.
  • f - Относительная влажность воздуха - влажноcть воздуха, измеренная на высоте 2 м над землей.
  • Te - Эффективная температура - температура, которую ощущает одетый по сезону человек в тени. Характеристика душности погоды. При расчете учитывается влияние влажности воздуха и скорости ветра на теплоощущения человека.
  • Tes - Эффективная температура на солнце - температура, которую ощущает человек, с поправкой на солнечный нагрев. Характеристика знойности погоды. Зависит от высоты солнца над горизонтом, облачности и скорости ветра. Ночью, в пасмурную погоду, а также при ветре 12 м/с и более поправка равна нулю.
  • P - Атмосферное давление - приведенное к уровню моря атмосферное давление.
  • Po - Атмосферное давление - измеренное на уровне метеостанции атмосферное давление.
  • Tmin - Минимальная температура - минимум температуры воздуха на высоте 2 м над землей.
  • Tmax - Максимальная температура - максимум температуры воздуха на высоте 2 м над землей.
  • R - Количество осадков - Количество выпавших осадков за период времени, мм. При наведении курсора мыши на число - период времени, за который выпало указанное количество осадков.
  • R24 - Количество осадков - Количество выпавших осадков за 24 часа, мм.
  • S - Снежный покров - Высота снежного покрова, см. При наведении курсора мыши на число - состояние снежного покрова и степень покрытия местности в баллах.